Miscellaneous Local Product
Issued by NWS Hastings, NE

Home | Current Version | Previous Version | Graphics & Text | Print | Product List | Glossary On
Versions: 1 2 3 4 5 6 7 8 9 10 11 12 13 14 15 16 17 18 19 20 21 22 23 24 25 26 27 28 29 30 31 32 33 34 35 36 37 38 39 40 41 42 43 44 45 46 47 48 49 50
000
AXUS43 KGID 020402
MISGRI

GID CWA HOURLY WEATHER ROUNDUP
NATIONAL WEATHER SERVICE HASTINGS NE
1100 PM CDT MON SEP 01 2014

NOTE: "FAIR" INDICATES FEW OR NO CLOUDS BELOW 12,000 FEET WITH NO
SIGNIFICANT WEATHER AND/OR OBSTRUCTIONS TO VISIBILITY.

...SOUTH CENTRAL NEBRASKA...

CITY           SKY/WX    TMP DP  RH WIND       PRES   REMARKS
GRAND ISLAND   PTCLDY    60  53  77 N9        29.97F
HASTINGS       CLEAR     63  58  83 N13       29.96R
KEARNEY        PTCLDY    61  55  82 NW15      30.02R
ORD            TSTM      57  56  96 S12       29.97R
YORK           CLEAR     63 N/A N/A NW10      29.96R
AURORA         PTCLDY    61  54  77 N10G24    29.97R
LEXINGTON      LGT RAIN  62  59  87 CALM      30.00S
HOLDREGE       PTCLDY    61  58  90 N16G25    29.98R
HEBRON         CLEAR     60  57  91 CALM      29.91R

...NEBRASKA PANHANDLE...

CITY           SKY/WX    TMP DP  RH WIND       PRES   REMARKS
CHADRON        CLEAR     50  48  93 W7        30.04R
ALLIANCE       PTCLDY    54  49  83 CALM      30.06R
SCOTTSBLUFF    CLEAR     53  48  83 NW5       30.08R
SIDNEY         PTCLDY    58  48  69 NE8       30.10R

...WESTERN AND NORTH CENTRAL NEBRASKA...

CITY           SKY/WX    TMP DP  RH WIND       PRES   REMARKS
VALENTINE      CLEAR     53  51  93 W5        29.99R
AINSWORTH      CLEAR     55  54  98 SW3       29.99R
ONEILL         CLOUDY    57  57  98 CALM      29.95S
BROKEN BOW     LGT RAIN  58  55  90 CALM      30.01S
IMPERIAL       PTCLDY    66  53  63 NE15      30.02R
NORTH PLATTE   PTCLDY    55  53  93 CALM      30.03R
MCCOOK         PTCLDY    61  55  81 N7        29.97R

...EASTERN NEBRASKA...

CITY           SKY/WX    TMP DP  RH WIND       PRES   REMARKS
NORFOLK        RAIN      60  58  92 W8        29.99R FOG
SO SIOUX CITY  MOCLDY    65  63  93 W3        29.88R
TEKAMAH        PTCLDY    64  62  93 W5        29.88R
ALBION         CLOUDY    58  56  93 SE7       29.93F
OMAHA EPPLEY   CLEAR     65  62  90 N6        29.87S
OFFUTT AFB     CLEAR     64  64 100 CALM      29.87R FOG
MILLARD        CLEAR     65  63  93 CALM      29.86F
LINCOLN        CLEAR     67  63  87 NW3       29.90R
NEBRASKA CITY  PTCLDY    64  64 100 CALM      29.90R
BEATRICE       CLEAR     62  61  97 CALM      29.90R
FALLS CITY     CLEAR     65  63  93 CALM      29.89R

...NORTHERN KANSAS...

CITY           SKY/WX    TMP DP  RH WIND       PRES   REMARKS
GOODLAND       CLEAR     61  54  77 S9        30.01R
HILL CITY      CLEAR     63  58  83 CALM      29.93R
NORTON         CLEAR     57  48  72 CALM      29.93R
PHILLIPSBURG   CLEAR     63  57  82 CALM      29.91S
SMITH CENTER   CLEAR     61  57  88 E6        29.90S
HAYS           CLEAR     66  59  77 CALM      29.93R
RUSSELL        CLEAR     65  63  93 E7        29.90R
CONCORDIA      CLEAR     62  60  93 S6        29.89R
SALINA         MOCLDY    73  67  81 SE7       29.90R
TOPEKA         CLOUDY    72  71  97 CALM      29.89R



USA.gov is the U.S. government's official web portal to all federal, state and local government web resources and services.